{"data":{"norad_id":59783,"intl_designator":"2024-093B","name":"STARLINK-31868","alt_names":[],"object_type":"PAYLOAD","status":"ACTIVE","operator":null,"country":"US","launch_date":"2024-05-18","launch_site_code":"AFETR","launch_vehicle":null,"mission":null,"orbit_class":"UNKNOWN","rcs_meters":null,"size_class":null,"mass_kg":null,"dimensions":null,"purposes":["comms"],"wikipedia_slug":null,"has_3d_model":false,"image_url":null,"decayed_at":null,"tle_current":{"epoch":"2026-05-25T00:11:31.524000Z","epoch_age_seconds":70382,"freshness":"FRESH","line1":"1 59783U 24093B   26145.00800375  .00000260  00000+0  18969-4 0  9995","line2":"2 59783  43.0011 134.6684 0001004 275.6306  84.4432 15.27574846114403","mean_motion":15.27574846,"eccentricity":0.0001004,"inclination_deg":43.0011,"raan_deg":134.6684,"arg_perigee_deg":275.6306,"mean_anomaly_deg":84.4432,"bstar":1.8969e-5,"rev_number":11440,"period_min":94.267066767346,"perigee_km":482.37566437967,"apogee_km":483.7533936467,"semimajor_km":6861.2015290132,"source":"CELESTRAK","updated_at":"2026-05-25T13:38:19.080164Z"}}}